Tracking 30703 objects as of 14-Jun-2025
HD Live streaming from Space Station
objects crossing your sky now

STARLINK-1636

Track STARLINK-1636 now!
10-day predictions
STARLINK-1636 is classified as:


NORAD ID: 46153
Int'l Code: 2020-057AN
Perigee: 415.1 km
Apogee: 420.7 km
Inclination: 53.0 °
Period: 92.8 minutes
Semi major axis: 6788 km
RCS: Unknown
Launch date: August 18, 2020
Source: United States (US)
Launch site: AIR FORCE EASTERN TEST RANGE (AFETR)
Your satellite tracking list
Your tracking list is empty




NASA's NSSDC Master Catalog

Two Line Element Set (TLE):
1 46153U 20057AN  25164.82434996  .00207076  00000-0  32969-2 0  9999
2 46153  53.0298  33.9663 0004109  88.3953 271.7526 15.52042604266236
Source of the keplerian elements: AFSPC